Weather History for Calgary Springbank, AB

Change the Weather History Date:

Saturday, October 20, 2012

  Actual Average Record
Temperature  
Mean Temperature 28 °F -  
Max Temperature 33 °F 39 °F 64 °F (1998)
Min Temperature 24 °F 18 °F 15 °F (1997)
Degree Days  
Heating Degree Days 36    
Moisture  
Dew Point 28 °F    
Average Humidity 93    
Maximum Humidity 100    
Minimum Humidity 80    
Precipitation  
Precipitation 0.12 in - - ()
Sea Level Pressure  
Sea Level Pressure 29.67 in    
Wind  
Wind Speed 7 mph ()    
Max Wind Speed 17 mph    
Max Gust Speed 20 mph    
Visibility 3.6 miles    
Events Snow    
Averages and records for this station are not official NWS values.
T = Trace of Precipitation, MM = Missing Value Source: Averaged Metar Reports

Daily Weather History Graph

Daily Weather History Graph

Search for Another Location

Airport:

Trip Planner

Search our weather history database for the weather conditions in past years. The results will help you decide how hot, cold, wet, or windy it might be!

Date:

Astronomy

Oct. 20, 2012 Rise Set
Actual Time 8:10 AM MDT 6:33 PM MDT
Civil Twilight 7:36 AM MDT 7:06 PM MDT
Nautical Twilight 6:58 AM MDT 7:45 PM MDT
Astronomical Twilight 6:19 AM MDT 8:23 PM MDT
Moon 2:09 PM MDT (10/20) 11:05 PM MDT (10/20)
Length of Visible Light 11h 30m
Length of Day
10h 22m
Waxing Crescent, 35% of the Moon is Illuminated
Oct 20
Waxing Crescent
Oct 21
First Quarter
Oct 29
Full
Nov 6
Last Quarter
Nov 13
New

Hourly Weather History & Observations

Time (MDT) Temp. Windchill Dew Point Humidity Pressure Visibility Wind Dir Wind Speed Gust Speed Precip Events Conditions
5:00 AM 33.8 °F 26.4 °F 32.0 °F 93% 29.44 in 12.0 mi NE 9.2 mph - N/A   Overcast
6:00 AM 33 °F - 32 °F 94% 29.47 in 12 mi ENE 5.8 mph - -   Partly Cloudy
6:00 AM 33.8 °F 27.7 °F 32.0 °F 93% 29.47 in 12.0 mi NE 6.9 mph - N/A   Overcast
7:00 AM 32.0 °F 27.5 °F 32.0 °F 100% 29.51 in 4.0 mi NNE 4.6 mph - N/A   Overcast
8:00 AM 32.0 °F 28.7 °F 32.0 °F 100% 29.54 in 1.0 mi NNE 3.5 mph - N/A   Overcast
9:00 AM 33.8 °F 28.6 °F 32.0 °F 93% 29.56 in 1.8 mi NNE 5.8 mph - N/A   Overcast
9:45 AM 33.8 °F 27.0 °F 32.0 °F 93% 29.58 in 3.0 mi North 8.1 mph - N/A   Overcast
10:00 AM 33.8 °F 27.7 °F 32.0 °F 93% 29.57 in 4.0 mi NNE 6.9 mph - N/A   Overcast
10:17 AM 32.0 °F 24.2 °F 32.0 °F 100% 29.59 in 3.0 mi NNE 9.2 mph - N/A Snow Light Snow Grains
10:40 AM 30.2 °F 20.8 °F 28.4 °F 93% 29.61 in 0.8 mi NNE 11.5 mph - N/A Snow Light Snow Grains
11:00 AM 30.2 °F 19.8 °F 28.4 °F 93% 29.61 in 0.8 mi North 13.8 mph - N/A Snow Light Snow Grains
12:00 PM 30 °F - 28 °F 89% 29.65 in 1 mi NNE 10.4 mph - - Snow Snow Grains
12:00 PM 30.2 °F 20.2 °F 28.4 °F 93% 29.64 in 0.8 mi NNE 12.7 mph - N/A Snow Light Snow Grains
12:13 PM 30.2 °F 20.2 °F 28.4 °F 93% 29.65 in 3.0 mi North 12.7 mph - N/A Snow Light Snow
12:19 PM 30.2 °F 22.6 °F 28.4 °F 93% 29.65 in 5.0 mi North 8.1 mph - N/A Snow Light Snow
12:40 PM 30.2 °F 18.5 °F 26.6 °F 86% 29.64 in 0.6 mi North 17.3 mph - N/A Snow Light Snow
1:00 PM 30.2 °F 18.5 °F 28.4 °F 93% 29.65 in 0.8 mi North 17.3 mph - N/A Snow Light Snow
1:28 PM 30.2 °F 21.3 °F 28.4 °F 93% 29.66 in 2.0 mi NNW 10.4 mph - N/A Snow Light Snow
1:41 PM 30.2 °F 20.2 °F 28.4 °F 93% 29.67 in 4.0 mi North 12.7 mph 18.4 mph N/A Snow Light Snow
1:44 PM 30.2 °F 20.2 °F 26.6 °F 86% 29.67 in 10.0 mi North 12.7 mph - N/A Snow Light Snow
2:00 PM 30.2 °F 18.5 °F 26.6 °F 86% 29.67 in 10.0 mi NNW 17.3 mph - N/A Snow Light Snow
2:32 PM 28.4 °F 18.0 °F 26.6 °F 93% 29.70 in 1.8 mi NNW 12.7 mph - N/A Snow Light Snow
2:51 PM 28.4 °F 19.1 °F 26.6 °F 93% 29.70 in 0.5 mi NNW 10.4 mph - N/A Snow Snow
3:00 PM 28.4 °F 19.1 °F 26.6 °F 93% 29.71 in 0.5 mi NNW 10.4 mph - N/A Snow Snow
3:17 PM 28.4 °F 18.0 °F 26.6 °F 93% 29.71 in 0.6 mi North 12.7 mph 19.6 mph N/A Snow Light Snow
3:37 PM 28.4 °F 21.2 °F 24.8 °F 86% 29.73 in 3.0 mi North 6.9 mph - N/A Snow Light Snow
4:00 PM 28.4 °F - 24.8 °F 86% 29.74 in 8.0 mi Calm Calm - N/A Snow Light Snow
4:25 PM 28.4 °F 19.7 °F 23.0 °F 80% 29.75 in 2.5 mi North 9.2 mph - N/A Snow Light Snow
5:00 PM 26.6 °F 18.2 °F 24.8 °F 93% 29.77 in 1.8 mi NNE 8.1 mph - N/A Snow Light Snow
5:50 PM 26.6 °F 22.6 °F 24.8 °F 93% 29.79 in 0.5 mi NE 3.5 mph - N/A Snow Snow
6:00 PM 26 °F - 25 °F 93% 29.80 in 1 mi NE 2.3 mph - - Snow Light Snow
6:00 PM 26.6 °F - 24.8 °F 93% 29.80 in 0.6 mi Calm Calm - N/A Snow Light Snow
6:51 PM 24.8 °F - 24.8 °F 100% 29.82 in 3.0 mi Calm Calm - N/A Snow Light Snow
7:00 PM 24.8 °F - 24.8 °F 100% 29.82 in 5.0 mi Calm Calm - N/A Snow Light Snow
8:00 PM 24.8 °F - 24.8 °F 100% 29.83 in 5.0 mi South 2.3 mph - N/A Snow Light Snow
9:00 PM 24.8 °F - 24.8 °F 100% 29.85 in 5.0 mi Calm Calm - N/A Snow Light Snow
10:00 PM 24.8 °F - 23.0 °F 93% 29.87 in 2.0 mi Calm Calm - N/A Snow Light Snow